Wind_Speed
19 21 21 21 22 23 24 24 25 23 23 24 26 27 29 30 32 33 35 36 37 39 40 41 42 44 45 47 48 48 48 48 50 50 50 50 49 49 49 50 50 48 48 48
19 20 21 22 23 25 26 27 26 26 26 25 26 27 27 29 31 33 35 36 37 39 39 40 41 42 43 45 46 48 49 48 48 48 49 50 49 49 49 49 49 49 49 48
19 20 21 22 23 25 28 29 29 28 27 27 27 28 28 29 30 31 33 35 37 38 39 40 41 42 43 45 46 47 48 49 49 49 50 51 50 49 49 49 48 48 48 48
20 20 21 20 22 24 25 27 29 29 29 29 29 29 28 28 29 30 32 34 35 37 38 39 40 42 43 45 46 46 47 48 49 49 50 50 50 49 49 49 48 48 48 48
21 21 21 20 21 23 25 26 28 29 29 29 29 29 28 28 29 30 31 32 33 34 36 38 39 41 42 43 44 45 46 47 48 48 48 49 49 49 49 49 49 49 49 49
21 22 21 19 21 22 24 25 26 28 28 29 28 28 27 28 29 29 30 30 32 33 35 37 39 40 42 42 44 45 45 46 48 48 48 48 48 48 48 48 48 48 48 48
21 22 22 21 21 22 23 23 24 26 27 27 28 27 27 27 28 29 30 30 32 33 35 37 39 40 42 42 43 44 45 46 48 48 48 48 48 48 48 49 49 48 48 48
22 22 22 22 23 23 23 23 24 25 26 27 28 28 28 28 28 28 29 30 31 32 34 36 38 39 40 41 42 43 44 44 45 46 47 47 48 47 48 48 48 48 48 47
23 23 23 23 24 24 25 25 25 26 26 26 27 28 29 29 29 29 28 29 30 31 32 34 36 39 40 41 41 41 41 42 43 44 45 46 46 46 46 46 47 47 47 46
24 23 23 23 23 24 24 25 26 26 27 27 27 28 29 29 30 30 30 30 31 31 32 33 35 36 37 38 39 40 41 41 41 41 42 44 45 45 46 46 46 46 45 45
24 23 22 21 22 22 23 24 25 26 26 27 28 28 29 29 30 30 30 30 30 31 31 32 33 35 36 37 37 38 39 39 40 40 41 41 42 43 44 44 44 44 45 45
25 24 23 21 21 22 23 24 25 25 26 26 27 27 28 29 30 30 30 31 30 30 31 31 32 33 34 36 36 37 37 38 38 39 39 40 41 41 42 43 43 43 44 44
26 25 24 22 22 23 23 24 24 25 25 25 26 26 26 27 28 29 30 30 31 31 31 31 32 33 34 35 35 36 37 37 38 38 38 39 39 40 40 41 42 43 43 43
25 25 24 24 23 24 24 23 23 24 24 24 24 25 25 26 26 27 28 29 30 31 31 31 32 32 33 33 34 35 36 36 37 37 37 38 38 38 39 39 40 41 42 42
25 25 24 23 23 23 24 24 24 24 24 24 24 24 24 25 25 26 27 28 28 29 29 30 31 32 32 33 33 34 35 36 36 36 37 37 37 37 37 38 39 39 39 40
24 24 24 23 23 23 23 24 24 23 23 24 24 24 25 25 26 26 26 27 27 28 28 29 29 29 31 32 32 32 33 35 36 36 36 35 35 35 35 36 36 37 37 38
22 22 23 23 23 23 24 23 23 23 24 24 23 23 24 24 24 24 25 25 26 26 26 26 26 27 28 28 29 30 31 31 32 34 35 35 35 35 35 35 35 36 36 37
21 21 21 22 22 23 23 23 23 23 23 23 23 24 24 24 24 24 24 25 25 24 24 24 25 26 26 27 27 28 29 30 30 31 32 33 34 35 35 36 36 36 36 36
21 21 21 21 22 22 23 23 23 23 23 23 23 24 25 25 25 25 25 25 24 24 23 23 24 25 26 26 27 28 29 30 31 32 32 32 33 34 34 35 36 36 36 35
21 21 22 22 22 23 23 23 23 23 23 23 23 24 24 25 25 24 24 24 24 23 24 24 25 25 26 26 27 28 29 30 31 31 32 32 33 33 33 34 34 34 34 34
22 22 23 23 23 23 23 23 23 23 22 23 23 23 23 23 23 23 22 22 23 23 23 24 25 25 26 26 27 28 28 28 29 29 30 31 31 31 31 31 31 31 31 31
23 23 23 23 23 23 22 22 22 22 23 23 23 23 22 22 21 21 21 21 22 22 23 24 24 24 25 25 25 26 26 26 27 27 27 28 28 29 29 29 28 28 28 28
23 23 23 23 22 22 22 22 22 22 22 23 22 22 22 22 21 20 20 21 22 22 22 23 23 23 23 23 23 24 24 24 25 25 25 25 25 26 26 26 26 25 25 25
22 22 22 22 22 22 22 22 22 22 22 22 22 22 22 22 21 21 21 21 21 21 21 22 22 22 22 22 23 23 23 23 23 23 23 23 23 23 24 23 23 23 23 23
21 21 21 21 21 21 22 22 22 23 22 22 21 21 21 21 21 21 21 21 21 21 21 21 21 21 21 21 21 21 21 20 20 20 21 21 21 21 21 21 21 21 20 20
21 21 21 21 21 21 22 22 22 22 21 21 21 21 21 20 20 21 20 20 20 20 20 20 20 20 20 19 18 18 18 18 18 18 18 18 18 18 18 18 18 18 18 18
21 21 21 21 21 21 21 22 22 22 21 21 21 21 21 20 20 20 19 19 20 20 20 20 20 19 18 17 16 16 17 17 16 16 15 15 15 15 15 15 16 16 16 17
Wind_Direction
283 275 268 263 258 257 255 254 256 259 261 261 262 263 261 258 256 254 253 251 250 249 247 245 244 243 241 241 242 243 244 244 243 244 246 247 249 251 253 254 256 258 260 263
286 280 273 268 262 260 258 256 257 259 261 262 264 264 263 261 259 257 254 253 251 250 248 247 245 244 242 242 242 243 244 244 244 245 247 248 250 251 253 255 256 257 259 261
292 285 278 273 266 264 261 260 260 262 263 262 265 266 265 263 261 258 255 253 252 251 249 247 245 243 242 242 242 244 245 245 244 246 247 249 251 253 255 256 257 259 259 261
294 290 282 280 272 268 265 263 262 263 264 266 265 265 265 264 263 260 257 255 253 251 250 249 248 245 243 244 244 244 245 245 244 245 247 249 251 253 255 256 258 258 260 261
296 293 289 284 278 274 269 267 264 264 265 266 265 265 265 265 265 263 260 257 255 253 251 249 249 246 243 244 244 244 245 245 245 246 249 250 252 253 255 257 258 259 260 262
297 295 293 290 283 279 273 269 266 265 266 266 266 265 265 265 265 263 261 259 257 255 254 251 249 247 245 245 244 244 244 244 245 246 249 250 252 255 257 257 258 259 260 263
297 294 293 292 287 284 278 274 270 269 267 266 265 266 266 266 266 263 261 260 258 257 255 253 250 248 247 246 246 245 245 246 247 248 250 251 254 256 256 257 258 259 261 263
298 295 295 292 288 284 280 276 273 271 270 268 266 267 267 268 267 264 263 262 260 259 257 255 252 249 248 247 248 248 248 249 250 250 251 252 254 255 257 257 259 260 262 264
299 296 293 290 288 285 281 277 274 273 272 270 269 268 268 268 267 264 263 263 263 262 260 257 254 251 250 250 251 251 251 251 252 252 253 253 254 255 257 258 260 260 261 263
300 298 293 290 287 285 281 277 274 274 273 273 272 271 269 269 268 266 264 265 264 263 261 260 258 256 254 252 253 253 254 254 254 254 255 255 256 257 258 259 260 261 263 264
297 296 291 289 286 284 281 279 277 277 275 275 274 272 270 269 267 265 265 266 265 265 264 261 259 258 256 255 255 255 255 255 255 256 256 258 258 259 260 261 262 263 264 264
295 292 289 289 286 284 283 282 280 279 278 276 274 272 270 268 267 266 266 267 267 267 266 263 260 259 258 257 255 255 255 255 256 257 258 260 260 261 262 263 264 265 266 267
294 290 288 287 285 285 286 286 285 283 281 279 277 275 273 270 268 267 267 267 268 267 266 265 263 261 260 258 256 255 255 256 256 257 259 261 262 263 263 264 265 266 267 270
293 289 287 286 284 286 286 288 288 286 283 281 279 277 275 273 272 271 270 270 269 268 266 265 264 263 261 259 258 257 256 256 257 258 260 261 262 263 264 265 265 266 268 270
291 289 287 286 285 286 286 287 289 289 287 284 281 279 277 276 275 274 272 271 270 268 267 266 265 263 261 260 261 260 259 259 259 259 259 260 262 263 265 266 267 268 269 270
290 288 287 287 287 288 289 290 291 290 288 286 284 282 281 279 278 277 275 274 272 271 270 269 267 266 264 264 262 262 262 261 260 260 260 261 262 264 265 266 267 268 270 271
291 289 288 288 288 288 289 291 292 291 289 288 285 283 283 281 279 277 276 277 276 273 272 271 269 268 268 267 265 264 264 264 263 263 263 263 263 263 265 266 267 269 271 272
293 290 288 288 290 291 292 293 294 292 290 289 287 285 285 284 282 279 277 276 276 275 273 271 270 270 270 270 269 268 267 266 266 266 265 264 265 265 266 267 268 269 271 272
294 291 290 290 291 293 294 294 293 292 291 289 288 288 288 287 285 281 277 276 276 275 273 272 272 272 272 272 272 271 270 269 269 268 267 267 268 268 269 269 269 269 269 270
294 292 291 291 291 292 293 294 293 292 291 291 290 290 289 287 285 282 279 277 276 276 275 276 277 277 277 276 274 274 273 272 270 269 268 269 269 269 270 270 269 269 269 269
293 293 292 291 291 291 291 292 293 292 291 291 291 291 291 289 285 283 281 280 279 279 279 279 280 280 279 277 276 276 275 273 271 270 269 268 268 269 270 270 270 270 269 268
292 293 294 293 291 291 292 293 294 295 294 294 292 291 290 288 287 286 285 283 283 283 282 281 281 280 279 278 278 277 275 275 274 272 270 268 268 269 270 270 271 270 269 268
294 295 295 294 293 292 293 294 295 296 296 296 294 291 288 286 285 285 285 286 286 285 284 283 282 281 280 279 278 277 277 276 275 273 270 269 268 269 269 269 269 269 268 269
295 296 296 295 295 294 294 295 296 296 297 298 295 291 288 285 283 283 285 287 288 287 286 285 285 283 281 281 280 279 278 275 273 272 271 270 270 268 268 267 267 267 268 269
295 296 296 297 296 295 296 296 296 297 297 297 295 292 290 287 284 284 286 287 287 288 289 289 288 286 285 283 282 279 277 275 274 273 272 271 269 267 266 265 265 267 268 269
296 297 297 297 297 297 297 297 297 297 296 296 295 294 291 288 286 285 286 287 288 289 291 290 289 289 287 285 282 278 276 276 275 274 272 270 269 267 266 266 266 266 268 269
296 297 297 296 297 298 299 299 298 297 295 294 295 293 290 288 287 287 288 289 290 291 291 290 288 287 286 285 283 280 278 276 275 274 272 270 269 269 268 267 268 269 270 270
Height
5597 5597 5596 5597 5597 5597 5597 5598 5599 5601 5602 5603 5603 5604 5606 5607 5608 5610 5612 5614 5616 5619 5622 5625 5628 5631 5634 5637 5641 5645 5648 5652 5656 5659 5663 5666 5669 5671 5674 5676 5678 5680 5681 5682
5593 5592 5591 5591 5592 5592 5592 5592 5593 5594 5596 5597 5597 5597 5598 5600 5601 5602 5604 5605 5607 5609 5612 5615 5618 5620 5623 5627 5630 5634 5637 5641 5645 5649 5652 5654 5657 5660 5662 5664 5666 5668 5669 5671
5588 5587 5586 5586 5587 5586 5587 5587 5588 5589 5591 5590 5590 5591 5591 5592 5593 5593 5595 5596 5598 5600 5602 5605 5607 5610 5613 5616 5620 5623 5627 5630 5634 5637 5640 5643 5646 5649 5651 5653 5654 5656 5657 5659
5582 5582 5581 5584 5581 5581 5581 5581 5581 5582 5583 5583 5583 5584 5584 5585 5585 5585 5586 5587 5588 5590 5593 5595 5598 5600 5603 5606 5610 5613 5616 5619 5623 5626 5629 5632 5634 5636 5639 5641 5643 5644 5646 5647
5577 5576 5576 5577 5575 5574 5574 5575 5575 5575 5575 5575 5575 5576 5578 5578 5577 5577 5578 5579 5580 5581 5583 5585 5588 5590 5593 5596 5599 5602 5605 5608 5611 5614 5617 5620 5622 5624 5626 5629 5630 5632 5633 5635
5573 5571 5570 5573 5570 5567 5568 5568 5568 5567 5568 5568 5568 5569 5570 5570 5569 5569 5570 5571 5571 5572 5574 5575 5577 5579 5582 5585 5588 5591 5594 5597 5600 5603 5605 5608 5610 5612 5614 5616 5618 5619 5621 5622
5569 5566 5566 5566 5564 5562 5562 5562 5561 5560 5560 5560 5560 5561 5562 5561 5561 5561 5562 5562 5563 5564 5565 5566 5567 5570 5572 5575 5577 5580 5583 5585 5588 5591 5593 5596 5598 5600 5602 5604 5606 5607 5609 5610
5564 5562 5564 5560 5558 5557 5556 5555 5554 5553 5553 5553 5553 5553 5553 5553 5553 5553 5554 5554 5554 5555 5556 5556 5558 5560 5563 5565 5567 5569 5572 5574 5577 5579 5581 5583 5585 5587 5589 5591 5593 5595 5596 5597
5560 5560 5557 5554 5551 5550 5549 5548 5547 5546 5546 5546 5545 5545 5545 5545 5545 5545 5546 5546 5546 5546 5547 5547 5548 5550 5553 5555 5557 5559 5561 5563 5565 5567 5569 5571 5573 5575 5577 5579 5580 5582 5583 5585
5554 5553 5550 5548 5545 5544 5542 5541 5540 5540 5539 5538 5538 5537 5537 5537 5537 5537 5537 5537 5537 5537 5538 5539 5539 5541 5542 5544 5546 5548 5550 5552 5554 5556 5558 5560 5561 5563 5565 5566 5568 5569 5570 5572
5547 5546 5543 5542 5539 5538 5536 5535 5534 5533 5532 5531 5530 5530 5529 5529 5529 5529 5529 5529 5528 5528 5529 5529 5530 5531 5533 5534 5536 5538 5540 5541 5543 5545 5547 5548 5550 5551 5552 5554 5555 5557 5558 5559
5541 5539 5537 5536 5533 5532 5530 5529 5527 5525 5524 5523 5522 5521 5521 5521 5520 5520 5520 5520 5520 5520 5520 5520 5521 5522 5523 5524 5526 5527 5529 5531 5533 5534 5536 5537 5538 5540 5540 5542 5543 5544 5546 5547
5534 5531 5530 5529 5527 5525 5524 5522 5520 5518 5517 5516 5515 5514 5513 5512 5512 5512 5512 5512 5512 5511 5511 5511 5512 5512 5513 5514 5516 5517 5519 5521 5522 5524 5525 5526 5527 5528 5529 5530 5531 5532 5533 5534
5527 5525 5523 5522 5521 5519 5517 5515 5514 5512 5510 5509 5507 5507 5506 5505 5504 5504 5503 5503 5503 5502 5502 5503 5503 5503 5504 5505 5506 5507 5508 5510 5511 5513 5514 5515 5516 5517 5518 5519 5520 5520 5521 5521
5520 5518 5517 5515 5514 5512 5510 5509 5507 5505 5503 5502 5501 5499 5498 5497 5497 5496 5495 5494 5494 5494 5493 5493 5493 5494 5495 5495 5496 5497 5498 5499 5501 5502 5503 5504 5505 5506 5507 5508 5508 5509 5509 5509
5513 5511 5509 5508 5507 5505 5504 5502 5500 5498 5496 5495 5494 5492 5491 5490 5489 5488 5487 5486 5486 5485 5485 5485 5485 5485 5485 5486 5486 5487 5488 5489 5490 5491 5492 5493 5494 5495 5496 5496 5497 5497 5498 5498
5506 5504 5503 5501 5500 5498 5497 5495 5493 5491 5490 5488 5486 5485 5484 5482 5481 5480 5479 5478 5477 5477 5476 5476 5476 5476 5476 5477 5477 5477 5478 5479 5480 5480 5481 5482 5483 5484 5485 5485 5486 5486 5486 5486
5500 5498 5496 5495 5493 5491 5490 5488 5486 5484 5482 5481 5479 5478 5477 5475 5474 5472 5471 5470 5470 5469 5468 5468 5468 5468 5468 5468 5468 5468 5469 5469 5470 5470 5471 5471 5472 5473 5474 5474 5475 5475 5475 5475
5494 5492 5490 5489 5487 5485 5483 5482 5480 5478 5476 5474 5473 5471 5469 5468 5466 5465 5464 5463 5462 5461 5461 5461 5460 5460 5460 5460 5460 5459 5459 5459 5460 5460 5460 5461 5461 5462 5462 5463 5463 5463 5463 5463
5488 5486 5484 5482 5480 5479 5477 5475 5473 5471 5469 5467 5465 5464 5462 5460 5459 5457 5456 5455 5455 5454 5454 5453 5453 5452 5452 5451 5451 5450 5450 5450 5450 5450 5450 5451 5451 5452 5452 5452 5452 5452 5452 5452
5481 5479 5477 5476 5474 5472 5470 5468 5466 5465 5463 5461 5459 5457 5455 5453 5451 5450 5449 5448 5448 5447 5446 5446 5445 5444 5443 5443 5442 5441 5441 5440 5440 5440 5440 5441 5441 5441 5442 5442 5442 5442 5442 5442
5474 5473 5471 5469 5467 5465 5463 5462 5460 5458 5456 5454 5452 5450 5448 5447 5445 5444 5443 5442 5441 5440 5439 5438 5437 5436 5435 5434 5434 5433 5432 5432 5431 5431 5431 5431 5432 5432 5432 5432 5432 5432 5433 5433
5468 5466 5464 5462 5460 5458 5457 5455 5453 5451 5449 5447 5445 5443 5442 5440 5439 5438 5437 5436 5434 5433 5432 5431 5429 5428 5428 5427 5426 5425 5424 5424 5423 5423 5423 5423 5423 5423 5423 5424 5424 5424 5424 5424
5461 5459 5457 5455 5454 5452 5450 5449 5447 5445 5443 5441 5439 5437 5435 5434 5433 5432 5430 5429 5428 5427 5425 5424 5423 5422 5421 5420 5419 5418 5417 5416 5416 5415 5415 5415 5415 5415 5416 5416 5416 5416 5417 5417
5455 5453 5451 5449 5448 5446 5444 5442 5441 5439 5437 5434 5432 5431 5429 5428 5427 5426 5424 5423 5422 5421 5419 5418 5416 5415 5414 5413 5412 5411 5410 5409 5409 5409 5408 5408 5408 5408 5409 5409 5409 5409 5410 5410
5449 5447 5445 5443 5442 5440 5438 5436 5434 5432 5430 5428 5427 5425 5423 5422 5420 5419 5418 5417 5416 5415 5413 5412 5410 5409 5408 5407 5406 5405 5404 5404 5403 5403 5402 5402 5402 5402 5402 5403 5403 5403 5404 5404
5442 5441 5439 5437 5435 5434 5432 5430 5428 5426 5424 5423 5421 5419 5417 5416 5415 5414 5413 5411 5410 5409 5407 5406 5404 5403 5402 5401 5400 5399 5399 5398 5398 5398 5397 5397 5397 5397 5397 5398 5398 5398 5398 5399